Regional Weather Roundup
Issued by NWS

Home | Current Version | Previous Version | Graphics & Text | Print | Product List | Glossary On
Versions: 1 2 3 4 5 6 7 8 9 10 11 12 13 14 15 16 17 18 19 20 21 22 23 24 25 26 27 28 29 30 31 32 33 34 35 36 37 38 39 40 41 42 43 44 45 46 47 48 49 50
000
ASUS43 KMPX 112110
RWRMN
WEATHER ROUNDUP FOR MINNESOTA
NATIONAL WEATHER SERVICE TWIN CITIES/CHANHASSEN MN
300 PM CST MON DEC 11 2017


NOTE: "FAIR" INDICATES FEW OR NO CLOUDS BELOW 12,000 FEET WITH NO
SIGNIFICANT WEATHER AND/OR OBSTRUCTIONS TO VISIBILITY. N/A MEANS
CURRENT SKY AND/OR WEATHER CONDITIONS ARE NOT AVAILABLE.

MNZ060>063-068>070-112200-
   Twin Cities Metro

CITY           SKY/WX    TMP DP  RH WIND       PRES   REMARKS
TWIN CITIES    CLOUDY    34  28  79 N18G26    29.93R WCI  23
ST PAUL        CLOUDY    33  26  75 NW24G30   29.93R WCI  20
CRYSTAL        CLOUDY    33  23  66 NW17G26   29.94R WCI  22
BLAINE         CLOUDY    34  27  75 NW21G30   29.93R WCI  22
LAKEVILLE      CLOUDY    32  27  80 NW18G26   29.91R WCI  20
EDEN PRAIRIE   CLOUDY    34  26  72 NW16G30   29.93R WCI  24
SOUTH ST PAUL  CLOUDY    34  27  75 N20G28    29.91R WCI  22
LAKE ELMO      CLOUDY    34  28  80 NW18G24   29.92R WCI  23
$$
MNZ001>005-007-008-013>017-022>024-027-028-112200-
   Northwest Minnesota

CITY           SKY/WX    TMP DP  RH WIND       PRES   REMARKS
BEMIDJI        PTSUNNY   19  11  70 NW20      30.09R WCI   4
HALLOCK        MOCLDY    12   9  85 N22       30.27R HAZE    WCI  -7
ROSEAU         CLEAR     14   9  79 NW15      30.19R WCI  -1
WARROAD        FLURRIES  12   9  85 NW13G18   30.17R WCI  -3
THIEF RVR FALL SUNNY     14   8  77 NW22      30.20R WCI  -4
CROOKSTON      CLOUDY    14   9  79 N23       30.24R WCI  -5
FOSSTON        CLOUDY    16   9  73 NW16G25   30.16R WCI   0
DETROIT LAKES  FLURRIES  18  14  86 NW21G30   30.14R WCI   1
MOORHEAD       MIX PCPN  18  10  73 N24       30.23R WCI   0
PARK RAPIDS    CLOUDY    22  14  71 NW20G29   30.06R WCI   7
MAHNOMEN       MOCLDY    15  10  78 N18G25    30.17R WCI  -1
$$
MNZ006-009>011-018-025>026-112200-
   North Central Minnesota

CITY           SKY/WX    TMP DP  RH WIND       PRES   REMARKS
BAUDETTE       MOCLDY    15   8  73 NW16G23   30.10R WCI  -1
FLAG ISLAND    MOCLDY    12   7  79 NW24      30.15R WCI  -8
INTL FALLS     LGT SNOW  17   9  70 NW14      30.05R WCI   3
WASKISH        MOCLDY    18  10  73 NW12G20   30.10R WCI   5
LONGVILLE      MOSUNNY   21  12  68 N13G21    30.03R WCI   9
GRAND RAPIDS   FLURRIES  20  12  71 N24       30.00R WCI   3
ORR            FLURRIES  18   9  68 NW10G16   29.97R WCI   6
COOK           FLURRIES  18  10  73 NW9G17    29.98R WCI   6
WALKER         FAIR      21  11  64 N20G25    30.05R WCI   6
$$
MNZ012-019>021-037-112200-
   Northeast Minnesota

CITY           SKY/WX    TMP DP  RH WIND       PRES   REMARKS
DULUTH         FLURRIES  20  12  71 N22G29    29.90R WCI   3
ELY            FLURRIES  16   9  73 NW13G25   29.92R WCI   2
HIBBING        CLOUDY    18  10  71 N22G32    29.96R WCI   1
DULUTH HARBOR  MOCLDY    27  14  59 NW22G30   29.97R WCI  12
TWO HARBORS    MOCLDY    25  14  63 NW9G17    29.89R WCI  15
GRAND MARAIS     N/A     20   9  62 VRB3      29.87R
G MARAIS ARPRT PTCLDY    10   3  72 NW20G35   29.77R HAZE    WCI  -8
$$
MNZ029>031-032-039>041-046>048-054>057-064-112200-
   West Central Minnesota

CITY           SKY/WX    TMP DP  RH WIND       PRES   REMARKS
FERGUS FALLS   PTSUNNY   18  12  79 N29       30.18R HAZE    WCI  -2
WHEATON        PTSUNNY   21  12  68 NW22G31   30.20R WCI   5
MORRIS         CLOUDY    23  16  74 N31G41    30.11R WCI   5
ALEXANDRIA     CLOUDY    24  15  68 N21G29    30.06R WCI   9
ELBOW LAKE     PTSUNNY   19  14  80 NW24G31   30.13R HAZE    WCI   2
WADENA         CLOUDY    21  16  79 NW17      30.06R WCI   7
GLENWOOD       PTSUNNY   23  18  80 NW23G31   30.06R WCI   7
APPLETON       CLOUDY    27  18  69 N24G33    30.14R WCI  12
BENSON         CLOUDY    25  18  74 N26G37    30.11R WCI   9
ORTONVILLE     CLOUDY    25  16  68 N24G35    30.16R WCI   9
MADISON        CLOUDY    28  19  69 N32       30.15R WCI  12
WILLMAR        CLOUDY    28  21  74 N28       30.07R WCI  13
$$
MNZ033>034-036-042>043-049>051-058-059-112200-
   Central Minnesota

CITY           SKY/WX    TMP DP  RH WIND       PRES   REMARKS
ST CLOUD       CLOUDY    28  20  71 N18G26    29.99R WCI  15
SAUK CENTRE    CLOUDY    26  19  74 NW21G28   30.04R WCI  12
PAYNESVILLE    CLOUDY    28  22  76 NW21G29   30.03R WCI  15
AITKIN         CLOUDY    21  14  73 NW14G23   29.99R WCI   8
PINE RIVER     CLOUDY    21  12  68 NW14G22   30.06R WCI   8
BRAINERD       CLOUDY    25  15  66 N17G24    30.02R WCI  12
STAPLES        MOSUNNY   23  14  68 N16       30.05R WCI  10
LONG PRAIRIE   PTSUNNY   25  18  74 NW15G21   30.03R WCI  12
LITTLE FALLS   MOSUNNY   27  12  54 N12G18    30.02R WCI  16
LITCHFIELD     CLOUDY    30  25  80 NW21G40   30.01R WCI  17
BUFFALO        CLOUDY    31  22  70 NW14G25   29.99R WCI  20
MAPLE LAKE     CLOUDY    31  26  78 N15G25    30.00R WCI  21
HUTCHINSON     CLOUDY    32  27  80 NW22G29   30.01R WCI  20
$$
MNZ037-044-045-052-053-112200-
   East Central Minnesota

CITY           SKY/WX    TMP DP  RH WIND       PRES   REMARKS
PRINCETON      CLOUDY    30  21  69 NW18G26   29.98R WCI  18
MORA           CLOUDY    27  19  74 N8G23     29.98R WCI  18
CAMBRIDGE      FLURRIES  30  19  64 NW13G26   29.96R WCI  20
RUSH CITY      CLOUDY    28  21  73 N16G25    29.95R WCI  16
MOOSE LAKE     CLOUDY    27  18  69 N13G25    29.94R WCI  16
HINCKLEY       CLOUDY    28  19  69 NW16      29.95R WCI  17
CLOQUET        CLOUDY    21  12  68 NW22G32   29.93R WCI   5
MCGREGOR       CLOUDY    25  18  74 NW20G29   29.98R WCI  11
$$
MNZ071>073-080-081-089-090-097-098-112200-
   Southwest Minnesota

CITY           SKY/WX    TMP DP  RH WIND       PRES   REMARKS
MONTEVIDEO     CLOUDY    25  18  74 N30G38    30.11R WCI   8
GRANITE FALLS  CLOUDY    28  20  74 NW26G35   30.12R WCI  12
CANBY          CLOUDY    28  21  75 NW23G32   30.14R WCI  14
MARSHALL       CLOUDY    26  21  81 N26G38    30.09R WCI  10
REDWOOD FALLS  CLOUDY    29  22  75 NW22G37   30.05R WCI  15
OLIVIA         CLOUDY    30  27  86 NW21G32   30.04R WCI  17
PIPESTONE      CLOUDY    28  23  80 N21G37    30.06R WCI  15
WINDOM           N/A     28  18  64 NW28G39   30.01R WCI  13
WORTHINGTON    CLOUDY    28  24  85 N33G40    30.03R WCI  11
JACKSON        CLOUDY    30  27  86 MISG      30.00R
TRACY          CLOUDY    27  22  82 NW31G38   30.08R WCI  11
SLAYTON        CLOUDY    27  22  81 N29G39    30.06R WCI  11
$$
MNZ065>067-074>077-082>085-091>093-112200-
   South Central Minnesota

CITY           SKY/WX    TMP DP  RH WIND       PRES   REMARKS
MANKATO        CLOUDY    34  27  75 N23G29    29.95R WCI  22
NEW ULM        CLOUDY    32  27  80 NW22G32   30.00R WCI  19
ST JAMES       CLOUDY    30  27  86 NW31G41   30.00R WCI  15
FAIRMONT       CLOUDY    31  28  89 NW28G35   29.96R WCI  17
GLENCOE        CLOUDY    34  28  80 NW17G28   29.97R WCI  23
FARIBAULT      CLOUDY    34  27  75 NW18G25   29.92R WCI  23
OWATONNA       CLOUDY    34  28  80 NW18G26   29.90R WCI  23
WASECA         CLOUDY    34  30  86 N22G28    29.93R WCI  22
$$
MNZ078>079-086>088-094>096-112200-
   Southeast Minnesota

CITY           SKY/WX    TMP DP  RH WIND       PRES   REMARKS
ROCHESTER      CLOUDY    32  29  88 N30G39    29.84R WCI  18
RED WING       CLOUDY    34  25  69 N9G16     29.88R WCI  26
STANTON        CLOUDY    34  28  78 N20G26    29.89R WCI  23
DODGE CENTER   CLOUDY    32  28  86 NW25      29.86R WCI  19
WINONA         CLOUDY    34  32  93 NW9       29.84R WCI  26
PRESTON        CLOUDY    32  29  90 N13G25    29.82R WCI  22
$$
ABBREVIATIONS USED IN REMARKS
   TC - TEMPERATURES IN CELSIUS
  WCI - WIND CHILL INDEX
   HX - HEAT INDEX
  VSB - VISIBILITY
$$




USA.gov is the U.S. government's official web portal to all federal, state and local government web resources and services.